Location: S�tio Afonso Gruber
(26.1760°S, 49.5250°W)
Time: 08:12:48
(UTC+00:00)

Cosmos 1844 Rocket - Pass Details

Date: 04 October 2020
Orbit: 823 x 846 km, 71.0° (Epoch: 22 October)

Event Time Altitude Azimuth Distance (km) Brightness Sun altitude
Exits shadow 07:22:07 - 354° (N) 2,751 5.1 -21.1°
Reaches altitude 10° 07:22:54 10° 355° (N) 2,458 4.9 -20.9°
Maximum altitude 07:28:28 61° 74° (ENE) 956 3.2 -19.7°
Drops below altitude 10° 07:34:04 10° 153° (SSE) 2,476 5.7 -18.5°
Sets 07:36:32 0° 156° (SSE) 3,413 6.4 -17.9°
